When you browse on this site, cookies collect data to enhance your experience and personalize the content and advertising you see.
Visit our Privacy Policy to learn more. By continuing to use the site, you agree to this use of cookies and data.
  • In Slovakia
  • List of Countries
  • For 7 days
  • Water Temperature
  • Satellite Maps
  • Weather Map
  • Weather Widgets
  • user-avatar
    Login

    Hourly Weather Amandow

    Today, 19 December, Wednesday

    Time Temperature Precipitation Wind Pressure Humidity
    00:00 -2°C° 0 mm 2 mps 747 mmHg 90%
    01:00 -3°C° 0 mm 2 mps 747 mmHg 90%
    02:00 -3°C° 0 mm 2 mps 746 mmHg 90%
    03:00 -3°C° 0 mm 2 mps 746 mmHg 89%
    04:00 -3°C° 0 mm 2 mps 746 mmHg 89%
    05:00 -3°C° 0 mm 2 mps 746 mmHg 89%
    06:00 -4°C° 0 mm 3 mps 746 mmHg 88%
    07:00 -4°C° 0 mm 3 mps 745 mmHg 88%
    08:00 -4°C° 0 mm 3 mps 745 mmHg 85%
    09:00 -2°C° 0 mm 3 mps 745 mmHg 82%
    10:00 -2°C° 0 mm 4 mps 745 mmHg 79%
    11:00 -2°C° 0 mm 4 mps 745 mmHg 77%
    12:00 -1°C° 0 mm 4 mps 744 mmHg 75%
    13:00 0°C° 0 mm 4 mps 744 mmHg 73%
    14:00 -1°C° 0 mm 4 mps 744 mmHg 75%
    15:00 -2°C° 0 mm 4 mps 744 mmHg 76%
    16:00 -3°C° 0 mm 4 mps 743 mmHg 78%
    17:00 -3°C° 0 mm 4 mps 743 mmHg 79%
    18:00 -3°C° 0 mm 4 mps 743 mmHg 79%
    19:00 -3°C° 0 mm 4 mps 743 mmHg 79%
    20:00 -3°C° 0 mm 4 mps 743 mmHg 79%
    21:00 -3°C° 0 mm 4 mps 742 mmHg 78%
    22:00 -3°C° 0 mm 4 mps 742 mmHg 78%
    23:00 -3°C° 0 mm 4 mps 742 mmHg 77%

    Tomorrow, 20 December, Thursday

    Time Temperature Precipitation Wind Pressure Humidity
    00:00 -2°C° 0 mm 3 mps 742 mmHg 76%
    01:00 -2°C° 0 mm 3 mps 742 mmHg 75%
    02:00 -2°C° 0 mm 3 mps 742 mmHg 75%
    03:00 -2°C° 0 mm 3 mps 742 mmHg 75%
    04:00 -2°C° 0 mm 3 mps 742 mmHg 75%
    05:00 -3°C° 0 mm 4 mps 742 mmHg 76%
    06:00 -4°C° 0 mm 4 mps 742 mmHg 77%
    07:00 -4°C° 0 mm 4 mps 742 mmHg 78%
    08:00 -5°C° 0 mm 5 mps 742 mmHg 78%
    09:00 -5°C° 0 mm 5 mps 742 mmHg 77%
    10:00 -4°C° 0 mm 5 mps 742 mmHg 76%
    11:00 -4°C° 0 mm 5 mps 742 mmHg 76%
    12:00 -4°C° 0 mm 5 mps 742 mmHg 76%
    13:00 -2°C° 0 mm 5 mps 742 mmHg 76%
    14:00 -2°C° 0.1 mm 4 mps 742 mmHg 79%
    15:00 -2°C° 0.1 mm 4 mps 742 mmHg 81%
    16:00 -2°C° 0.1 mm 4 mps 742 mmHg 84%
    17:00 -2°C° 0.1 mm 4 mps 742 mmHg 85%
    18:00 -2°C° 0.1 mm 4 mps 742 mmHg 85%
    19:00 -2°C° 0.1 mm 4 mps 742 mmHg 86%
    20:00 -2°C° 0 mm 4 mps 742 mmHg 86%
    21:00 -2°C° 0 mm 4 mps 743 mmHg 87%
    22:00 -2°C° 0 mm 4 mps 743 mmHg 87%
    23:00 -2°C° 0 mm 4 mps 742 mmHg 88%

    Day after tomorrow, 21 December, Friday

    Time Temperature Precipitation Wind Pressure Humidity
    00:00 -2°C° 0 mm 4 mps 742 mmHg 88%
    01:00 -2°C° 0 mm 4 mps 742 mmHg 88%
    02:00 -1°C° 0 mm 4 mps 742 mmHg 88%
    03:00 -1°C° 0 mm 4 mps 742 mmHg 88%
    04:00 -1°C° 0 mm 5 mps 742 mmHg 88%
    05:00 -1°C° 0.1 mm 5 mps 741 mmHg 87%
    06:00 -1°C° 0.1 mm 5 mps 741 mmHg 87%
    07:00 -1°C° 0.1 mm 5 mps 741 mmHg 87%
    08:00 -1°C° 0.2 mm 5 mps 740 mmHg 85%
    09:00 0°C° 0.2 mm 5 mps 740 mmHg 84%
    10:00 -1°C° 0.2 mm 6 mps 740 mmHg 83%
    11:00 0°C° 0.4 mm 5 mps 739 mmHg 83%
    12:00 +1°C° 0.4 mm 5 mps 738 mmHg 83%
    13:00 +1°C° 0.4 mm 5 mps 738 mmHg 83%
    14:00 +1°C° 0.5 mm 5 mps 737 mmHg 83%
    15:00 +1°C° 0.5 mm 6 mps 736 mmHg 84%
    16:00 +1°C° 0.5 mm 6 mps 736 mmHg 84%
    17:00 +1°C° 0.8 mm 6 mps 735 mmHg 84%
    18:00 0°C° 0.8 mm 7 mps 735 mmHg 84%
    19:00 0°C° 0.8 mm 8 mps 735 mmHg 84%
    20:00 +2°C° 0.8 mm 7 mps 734 mmHg 85%
    21:00 +2°C° 0.8 mm 7 mps 734 mmHg 86%
    22:00 +3°C° 0.8 mm 7 mps 733 mmHg 87%
    23:00 +3°C° 0.3 mm 7 mps 733 mmHg 88%

    22 December, Saturday

    Time Temperature Precipitation Wind Pressure Humidity
    00:00 +3°C° 0.3 mm 7 mps 733 mmHg 88%
    01:00 +4°C° 0.3 mm 7 mps 733 mmHg 89%
    02:00 +4°C° 0.1 mm 6 mps 733 mmHg 89%
    03:00 +5°C° 0.1 mm 5 mps 733 mmHg 90%
    04:00 +5°C° 0.1 mm 5 mps 733 mmHg 91%
    05:00 +4°C° 0 mm 4 mps 733 mmHg 91%
    06:00 +4°C° 0 mm 4 mps 733 mmHg 91%
    07:00 +4°C° 0 mm 4 mps 733 mmHg 91%
    08:00 +3°C° 0.1 mm 5 mps 733 mmHg 90%
    09:00 +5°C° 0.1 mm 5 mps 733 mmHg 90%
    10:00 +5°C° 0.1 mm 5 mps 733 mmHg 90%
    11:00 +5°C° 0.5 mm 5 mps 733 mmHg 89%
    12:00 +5°C° 0.5 mm 5 mps 733 mmHg 88%
    13:00 +5°C° 0.5 mm 5 mps 733 mmHg 88%
    14:00 +4°C° 0.3 mm 6 mps 733 mmHg 86%
    15:00 +5°C° 0.3 mm 6 mps 733 mmHg 85%
    16:00 +5°C° 0.3 mm 7 mps 733 mmHg 84%
    17:00 +4°C° 0.1 mm 7 mps 734 mmHg 81%
    18:00 +4°C° 0.1 mm 7 mps 734 mmHg 78%
    19:00 +4°C° 0.1 mm 7 mps 735 mmHg 75%
    20:00 +3°C° 0 mm 7 mps 735 mmHg 75%
    21:00 +3°C° 0 mm 6 mps 736 mmHg 76%
    22:00 +2°C° 0 mm 6 mps 736 mmHg 77%
    23:00 +2°C° 0 mm 5 mps 736 mmHg 78%

    23 December, Sunday

    Time Temperature Precipitation Wind Pressure Humidity
    00:00 +2°C° 0 mm 5 mps 737 mmHg 80%
    01:00 +2°C° 0 mm 5 mps 737 mmHg 82%
    02:00 +2°C° 0 mm 5 mps 737 mmHg 83%
    03:00 +2°C° 0 mm 5 mps 737 mmHg 85%
    04:00 +3°C° 0 mm 4 mps 737 mmHg 86%
    05:00 +3°C° 0 mm 4 mps 737 mmHg 86%
    06:00 +3°C° 0 mm 4 mps 737 mmHg 85%
    07:00 +3°C° 0 mm 4 mps 738 mmHg 85%
    08:00 +2°C° 0 mm 5 mps 738 mmHg 83%
    09:00 +2°C° 0 mm 5 mps 738 mmHg 82%
    10:00 +3°C° 0 mm 5 mps 739 mmHg 80%
    11:00 +3°C° 0 mm 5 mps 739 mmHg 79%
    12:00 +3°C° 0 mm 5 mps 739 mmHg 79%
    13:00 +3°C° 0 mm 5 mps 739 mmHg 78%
    14:00 +3°C° 0.1 mm 5 mps 739 mmHg 78%
    15:00 +4°C° 0.1 mm 4 mps 739 mmHg 78%
    16:00 +3°C° 0.1 mm 4 mps 739 mmHg 79%
    17:00 +3°C° 0 mm 4 mps 739 mmHg 80%
    18:00 +1°C° 0 mm 4 mps 740 mmHg 81%
    19:00 +1°C° 0 mm 4 mps 740 mmHg 82%
    20:00 +1°C° 0.1 mm 4 mps 740 mmHg 82%
    21:00 +1°C° 0.1 mm 4 mps 740 mmHg 83%
    22:00 +1°C° 0.1 mm 4 mps 740 mmHg 83%
    23:00 +1°C° 0.3 mm 4 mps 740 mmHg 83%

    24 December, Monday

    Time Temperature Precipitation Wind Pressure Humidity
    00:00 +1°C° 0.3 mm 5 mps 740 mmHg 82%
    01:00 +1°C° 0.3 mm 5 mps 740 mmHg 82%
    02:00 +1°C° 0.2 mm 6 mps 740 mmHg 82%
    03:00 +1°C° 0.2 mm 6 mps 740 mmHg 82%
    04:00 0°C° 0.2 mm 7 mps 740 mmHg 82%
    05:00 +1°C° 0.3 mm 6 mps 741 mmHg 84%
    06:00 +1°C° 0.3 mm 5 mps 741 mmHg 86%
    07:00 +1°C° 0.3 mm 3 mps 742 mmHg 89%
    08:00 +1°C° 0.3 mm 3 mps 743 mmHg 89%
    09:00 +2°C° 0.3 mm 2 mps 743 mmHg 89%
    10:00 +2°C° 0.3 mm 2 mps 744 mmHg 89%
    11:00 +3°C° 0.2 mm 2 mps 744 mmHg 88%
    12:00 +3°C° 0.2 mm 2 mps 744 mmHg 88%
    13:00 +2°C° 0.2 mm 3 mps 744 mmHg 87%
    14:00 +2°C° 0.1 mm 3 mps 744 mmHg 87%
    15:00 +2°C° 0.1 mm 3 mps 744 mmHg 86%
    16:00 +1°C° 0.1 mm 4 mps 744 mmHg 86%
    17:00 +2°C° 0.1 mm 3 mps 744 mmHg 87%
    18:00 +2°C° 0.1 mm 3 mps 744 mmHg 87%
    19:00 +2°C° 0.1 mm 3 mps 744 mmHg 88%
    20:00 +2°C° 0.1 mm 3 mps 745 mmHg 88%
    21:00 0°C° 0.1 mm 4 mps 745 mmHg 88%
    22:00 0°C° 0.1 mm 4 mps 745 mmHg 88%
    23:00 0°C° 0.1 mm 4 mps 745 mmHg 87%
    Show more